When you browse on this site, cookies collect data to enhance your experience and personalize the content and advertising you see.
Visit our Privacy Policy to learn more. By continuing to use the site, you agree to this use of cookies and data.
  • In Austria
  • List of Countries
  • For 7 days
  • Water Temperature
  • Weather Map
  • News
  • Weather Widgets
  • user-avatar
    Login

    Hourly Weather Mendoza

    Today, 3 June, Wednesday

    Time Temperature Precipitation Wind Pressure Humidity
    00:00 +9°C° 0 mm 3 mps 694 mmHg 59%
    01:00 +8°C° 0 mm 4 mps 694 mmHg 58%
    02:00 +7°C° 0 mm 5 mps 694 mmHg 60%
    03:00 +7°C° 0 mm 5 mps 694 mmHg 61%
    04:00 +7°C° 0 mm 6 mps 694 mmHg 62%
    05:00 +6°C° 0.3 mm 7 mps 695 mmHg 67%
    06:00 +6°C° 0.3 mm 7 mps 696 mmHg 72%
    07:00 +6°C° 0.3 mm 7 mps 698 mmHg 77%
    08:00 +5°C° 1.5 mm 8 mps 698 mmHg 80%
    09:00 +5°C° 1.5 mm 8 mps 699 mmHg 83%
    10:00 +4°C° 1.5 mm 8 mps 699 mmHg 86%
    11:00 +4°C° 0.9 mm 8 mps 700 mmHg 86%
    12:00 +4°C° 0.9 mm 8 mps 700 mmHg 85%
    13:00 +4°C° 0.9 mm 8 mps 700 mmHg 85%
    14:00 +4°C° 0.1 mm 8 mps 700 mmHg 83%
    15:00 +5°C° 0.1 mm 8 mps 701 mmHg 81%
    16:00 +5°C° 0.1 mm 8 mps 701 mmHg 80%
    17:00 +5°C° 0 mm 7 mps 702 mmHg 79%
    18:00 +5°C° 0 mm 6 mps 702 mmHg 78%
    19:00 +6°C° 0 mm 4 mps 703 mmHg 77%
    20:00 +6°C° 0 mm 4 mps 703 mmHg 76%
    21:00 +6°C° 0 mm 4 mps 703 mmHg 75%
    22:00 +7°C° 0 mm 3 mps 703 mmHg 73%
    23:00 +5°C° 0 mm 3 mps 703 mmHg 74%

    Tomorrow, 4 June, Thursday

    Time Temperature Precipitation Wind Pressure Humidity
    00:00 +6°C° 0 mm 2 mps 703 mmHg 74%
    01:00 +6°C° 0 mm 1 mps 702 mmHg 74%
    02:00 +6°C° 0 mm 1 mps 702 mmHg 76%
    03:00 +6°C° 0 mm 1 mps 702 mmHg 77%
    04:00 +5°C° 0 mm 1 mps 701 mmHg 79%
    05:00 +5°C° 0 mm 1 mps 702 mmHg 81%
    06:00 +5°C° 0 mm 1 mps 702 mmHg 82%
    07:00 +4°C° 0 mm 2 mps 702 mmHg 84%
    08:00 +6°C° 0 mm 2 mps 702 mmHg 77%
    09:00 +7°C° 0 mm 2 mps 701 mmHg 70%
    10:00 +9°C° 0 mm 2 mps 701 mmHg 63%
    11:00 +10°C° 0 mm 3 mps 701 mmHg 59%
    12:00 +11°C° 0 mm 3 mps 700 mmHg 55%
    13:00 +12°C° 0 mm 3 mps 700 mmHg 51%
    14:00 +12°C° 0 mm 3 mps 699 mmHg 50%
    15:00 +13°C° 0 mm 2 mps 699 mmHg 49%
    16:00 +13°C° 0 mm 2 mps 699 mmHg 48%
    17:00 +12°C° 0 mm 2 mps 699 mmHg 51%
    18:00 +10°C° 0 mm 1 mps 699 mmHg 54%
    19:00 +9°C° 0 mm 1 mps 699 mmHg 57%
    20:00 +9°C° 0 mm 1 mps 699 mmHg 56%
    21:00 +8°C° 0 mm 2 mps 700 mmHg 55%
    22:00 +8°C° 0 mm 2 mps 700 mmHg 54%
    23:00 +8°C° 0 mm 2 mps 700 mmHg 56%

    Day after tomorrow, 5 June, Friday

    Time Temperature Precipitation Wind Pressure Humidity
    00:00 +7°C° 0 mm 2 mps 700 mmHg 58%
    01:00 +7°C° 0 mm 2 mps 699 mmHg 60%
    02:00 +7°C° 0 mm 1 mps 699 mmHg 61%
    03:00 +7°C° 0 mm 1 mps 699 mmHg 63%
    04:00 +7°C° 0 mm 1 mps 699 mmHg 64%
    05:00 +7°C° 0 mm 1 mps 699 mmHg 63%
    06:00 +7°C° 0 mm 1 mps 699 mmHg 61%
    07:00 +7°C° 0 mm 1 mps 699 mmHg 59%
    08:00 +9°C° 0 mm 1 mps 699 mmHg 52%
    09:00 +12°C° 0 mm 2 mps 699 mmHg 45%
    10:00 +14°C° 0 mm 2 mps 699 mmHg 38%
    11:00 +15°C° 0 mm 2 mps 699 mmHg 34%
    12:00 +16°C° 0 mm 2 mps 699 mmHg 30%
    13:00 +17°C° 0 mm 2 mps 698 mmHg 26%
    14:00 +17°C° 0 mm 2 mps 698 mmHg 28%
    15:00 +16°C° 0 mm 1 mps 698 mmHg 29%
    16:00 +16°C° 0 mm 1 mps 698 mmHg 30%
    17:00 +14°C° 0 mm 1 mps 698 mmHg 31%
    18:00 +13°C° 0 mm 1 mps 698 mmHg 32%
    19:00 +12°C° 0 mm 1 mps 698 mmHg 32%
    20:00 +12°C° 0 mm 1 mps 697 mmHg 33%
    21:00 +10°C° 0 mm 2 mps 697 mmHg 33%
    22:00 +10°C° 0 mm 2 mps 697 mmHg 34%
    23:00 +10°C° 0 mm 2 mps 697 mmHg 37%

    6 June, Saturday

    Time Temperature Precipitation Wind Pressure Humidity
    00:00 +9°C° 0 mm 2 mps 697 mmHg 39%
    01:00 +9°C° 0 mm 2 mps 697 mmHg 42%
    02:00 +8°C° 0 mm 2 mps 696 mmHg 45%
    03:00 +9°C° 0 mm 1 mps 696 mmHg 49%
    04:00 +8°C° 0 mm 1 mps 696 mmHg 52%
    05:00 +8°C° 0 mm 1 mps 696 mmHg 51%
    06:00 +7°C° 0 mm 2 mps 696 mmHg 51%
    07:00 +7°C° 0 mm 2 mps 696 mmHg 51%
    08:00 +10°C° 0 mm 2 mps 696 mmHg 46%
    09:00 +13°C° 0 mm 2 mps 696 mmHg 41%
    10:00 +15°C° 0 mm 2 mps 697 mmHg 37%
    11:00 +16°C° 0 mm 1 mps 697 mmHg 33%
    12:00 +18°C° 0 mm 1 mps 696 mmHg 30%
    13:00 +19°C° 0 mm 1 mps 696 mmHg 27%
    14:00 +19°C° 0 mm 1 mps 696 mmHg 29%
    15:00 +18°C° 0 mm 1 mps 696 mmHg 31%
    16:00 +18°C° 0 mm 1 mps 696 mmHg 33%
    17:00 +16°C° 0 mm 2 mps 697 mmHg 33%
    18:00 +15°C° 0 mm 2 mps 697 mmHg 33%
    19:00 +13°C° 0 mm 3 mps 698 mmHg 33%
    20:00 +14°C° 0 mm 2 mps 698 mmHg 32%
    21:00 +13°C° 0 mm 2 mps 698 mmHg 32%
    22:00 +13°C° 0 mm 2 mps 698 mmHg 31%
    23:00 +12°C° 0 mm 2 mps 698 mmHg 34%

    7 June, Sunday

    Time Temperature Precipitation Wind Pressure Humidity
    00:00 +12°C° 0 mm 2 mps 698 mmHg 37%
    01:00 +10°C° 0 mm 2 mps 699 mmHg 39%
    02:00 +10°C° 0 mm 2 mps 698 mmHg 40%
    03:00 +9°C° 0 mm 2 mps 698 mmHg 40%
    04:00 +9°C° 0 mm 2 mps 698 mmHg 41%
    05:00 +9°C° 0 mm 2 mps 698 mmHg 43%
    06:00 +9°C° 0 mm 1 mps 698 mmHg 46%
    07:00 +9°C° 0 mm 1 mps 699 mmHg 48%
    08:00 +10°C° 0 mm 1 mps 699 mmHg 44%
    09:00 +12°C° 0 mm 1 mps 699 mmHg 41%
    10:00 +14°C° 0 mm 1 mps 699 mmHg 37%
    11:00 +15°C° 0 mm 1 mps 698 mmHg 36%
    12:00 +16°C° 0 mm 1 mps 698 mmHg 35%
    13:00 +17°C° 0 mm 2 mps 697 mmHg 35%
    14:00 +16°C° 0 mm 1 mps 697 mmHg 36%
    15:00 +16°C° 0 mm 1 mps 697 mmHg 37%
    16:00 +16°C° 0 mm 1 mps 697 mmHg 39%
    17:00 +15°C° 0 mm 1 mps 697 mmHg 40%
    18:00 +14°C° 0 mm 1 mps 698 mmHg 42%
    19:00 +13°C° 0 mm 1 mps 698 mmHg 43%
    20:00 +12°C° 0 mm 1 mps 698 mmHg 43%
    21:00 +12°C° 0 mm 2 mps 698 mmHg 42%
    22:00 +12°C° 0 mm 2 mps 698 mmHg 41%
    23:00 +10°C° 0 mm 2 mps 698 mmHg 42%

    8 June, Monday

    Time Temperature Precipitation Wind Pressure Humidity
    00:00 +10°C° 0 mm 2 mps 698 mmHg 43%
    01:00 +10°C° 0 mm 3 mps 698 mmHg 44%
    02:00 +9°C° 0 mm 2 mps 698 mmHg 48%
    03:00 +8°C° 0 mm 2 mps 697 mmHg 52%
    04:00 +9°C° 0 mm 1 mps 697 mmHg 56%
    05:00 +9°C° 0 mm 1 mps 697 mmHg 55%
    06:00 +9°C° 0 mm 1 mps 697 mmHg 54%
    07:00 +9°C° 0 mm 1 mps 697 mmHg 53%
    08:00 +11°C° 0 mm 1 mps 697 mmHg 46%
    09:00 +13°C° 0 mm 1 mps 697 mmHg 39%
    10:00 +16°C° 0 mm 1 mps 697 mmHg 33%
    11:00 +18°C° 0 mm 1 mps 697 mmHg 30%
    12:00 +19°C° 0 mm 1 mps 696 mmHg 27%
    13:00 +20°C° 0 mm 1 mps 695 mmHg 25%
    14:00 +19°C° 0 mm 1 mps 695 mmHg 26%
    15:00 +19°C° 0 mm 1 mps 695 mmHg 28%
    16:00 +18°C° 0 mm 1 mps 695 mmHg 30%
    17:00 +16°C° 0 mm 1 mps 695 mmHg 31%
    18:00 +15°C° 0 mm 2 mps 696 mmHg 32%
    19:00 +14°C° 0 mm 2 mps 696 mmHg 34%
    20:00 +14°C° 0 mm 2 mps 696 mmHg 33%
    21:00 +14°C° 0 mm 2 mps 696 mmHg 32%
    22:00 +13°C° 0 mm 2 mps 696 mmHg 31%
    23:00 +13°C° 0 mm 2 mps 696 mmHg 31%
    Show more